CW9386 Weather Reports


time (UTC)temp
F
wind
direction
speed
knots
gust
knots
rain 1hr
in
rain 24hr
in
rain mn
in
humidity
%
barometer
mb
20260508145642 66 342 4.3 7.0 0.00 0.00 0.00 27 1015.6
20260508144659 66 11 3.5 6.1 0.00 0.00 0.00 28 1015.6
20260508143653 65 5 3.5 7.0 0.00 0.00 0.00 28 1015.6
20260508141641 64 349 4.3 7.8 0.00 0.00 0.00 30 1015.6
20260508135647 63 349 4.3 6.1 0.00 0.00 0.00 32 1015.7
20260508133645 60 360 0.9 2.6 0.00 0.00 0.00 37 1015.4
20260508132657 58 21 0.0 0.9 0.00 0.00 0.00 39 1015.2
20260508131648 57 74 0.0 2.6 0.00 0.00 0.00 40 1015.3
20260508130650 56 46 0.9 3.5 0.00 0.00 0.00 39 1015.1
20260508125642 56 9 1.7 4.3 0.00 0.00 0.00 38 1015.2
20260508124658 57 5 2.6 5.2 0.00 0.00 0.00 38 1015.0
20260508123649 58 19 0.9 2.6 0.00 0.00 0.00 37 1014.7
20260508122643 58 16 0.0 1.7 0.00 0.00 0.00 37 1013.8
20260508121658 58 17 0.9 2.6 0.00 0.00 0.00 37 1013.7
20260508120654 59 18 0.0 0.9 0.00 0.00 0.00 36 1013.8
20260508115648 59 17 0.0 0.9 0.00 0.00 0.00 35 1013.8
20260508114639 59 18 0.9 2.6 0.00 0.00 0.00 35 1013.7
20260508113652 60 20 0.9 1.7 0.00 0.00 0.00 35 1013.7
20260508112649 60 18 0.0 2.6 0.00 0.00 0.00 35 1013.7
20260508111639 61 19 0.0 2.6 0.00 0.00 0.00 34 1013.7
20260508110654 61 20 1.7 2.6 0.00 0.00 0.00 34 1013.8
20260508105650 61 18 0.9 3.5 0.00 0.00 0.00 34 1013.7
20260508103641 61 360 2.6 6.1 0.00 0.00 0.00 36 1013.6
20260508102655 61 17 1.7 8.7 0.00 0.00 0.00 37 1013.6
20260508101646 61 16 4.3 7.8 0.00 0.00 0.00 38 1013.6
20260508100647 60 360 5.2 7.8 0.00 0.00 0.00 38 1013.6
20260508094651 58 15 3.5 6.1 0.00 0.00 0.00 38 1013.9
20260508093642 58 16 1.7 4.3 0.00 0.00 0.00 37 1014.0
20260508092642 57 16 0.9 2.6 0.00 0.00 0.00 37 1014.1
20260508091636 57 18 0.9 2.6 0.00 0.00 0.00 37 1014.3
20260508090649 56 17 0.9 3.5 0.00 0.00 0.00 36 1014.3
20260508085640 56 16 0.9 3.5 0.00 0.00 0.00 35 1014.1
20260508084651 56 15 0.9 2.6 0.00 0.00 0.00 35 1014.1
20260508083649 56 15 0.9 2.6 0.00 0.00 0.00 35 1014.2
20260508081638 56 13 0.0 1.7 0.00 0.00 0.00 35 1014.3
20260508080646 56 14 1.7 2.6 0.00 0.00 0.00 36 1014.3
20260508074646 57 15 0.9 2.6 0.00 0.00 0.00 34 1014.5
20260508073645 58 13 0.9 2.6 0.00 0.00 0.00 34 1014.5
20260508072653 58 15 0.0 3.5 0.00 0.00 0.00 33 1014.6
20260508071653 58 15 0.0 4.3 0.00 0.00 0.00 33 1014.6
20260508070648 59 17 0.9 3.5 0.00 0.00 0.00 33 1014.6
20260508065644 59 14 2.6 4.3 0.00 0.00 0.00 33 1014.7
20260508063644 59 13 0.9 2.6 0.00 0.00 0.00 32 1014.6
20260508062651 59 14 1.7 3.5 0.00 0.00 0.00 32 1014.6
20260508061643 59 15 1.7 3.5 0.00 0.00 0.00 32 1014.7
20260508060645 59 13 2.6 2.6 0.00 0.00 0.00 31 1014.6
20260508055643 59 13 0.9 2.6 0.00 0.00 0.00 31 1014.5
20260508054644 60 13 0.9 2.6 0.00 0.00 0.00 31 1014.4
20260508053634 60 12 1.7 2.6 0.00 0.00 0.00 31 1014.5
20260508052637 60 11 0.9 3.5 0.00 0.00 0.00 31 1014.5
20260508045647 62 14 1.7 4.3 0.00 0.00 0.00 30 1014.7
20260508044637 62 15 2.6 3.5 0.00 0.00 0.00 30 1014.6
20260508043646 62 15 0.9 2.6 0.00 0.00 0.00 29 1014.6
20260508042641 63 15 2.6 3.5 0.00 0.00 0.00 29 1014.7
20260508041640 63 14 0.9 1.7 0.00 0.00 0.00 29 1014.7
20260508035645 64 138 0.9 5.2 0.00 0.00 0.00 28 1014.4
20260508034638 64 121 2.6 5.2 0.00 0.00 0.00 27 1014.3
20260508033636 65 132 2.6 6.1 0.00 0.00 0.00 26 1014.3
20260508032649 66 105 3.5 5.2 0.00 0.00 0.00 25 1014.0
20260508031645 68 128 1.7 3.5 0.00 0.00 0.00 23 1014.0
20260508030642 69 126 0.0 2.6 0.00 0.00 0.00 21 1013.9
20260508025649 70 119 0.9 1.7 0.00 0.00 0.00 20 1013.8
20260508024645 72 128 1.7 2.6 0.00 0.00 0.00 18 1013.7
20260508023644 74 191 0.0 1.7 0.00 0.00 0.00 17 1013.6
20260508022637 75 24 1.7 2.6 0.00 0.00 0.00 16 1013.4
20260508021635 76 23 1.7 2.6 0.00 0.00 0.00 15 1013.4
20260508020634 77 205 0.0 0.0 0.00 0.00 0.00 15 1013.3
20260508015649 78 209 0.0 0.0 0.00 0.00 0.00 14 1013.2
20260508014646 79 96 0.0 1.7 0.00 0.00 0.00 13 1013.3
20260508013640 79 221 0.0 0.9 0.00 0.00 0.00 13 1013.2
20260508012637 80 221 0.9 2.6 0.00 0.00 0.00 13 1013.1
20260508011630 80 237 2.6 5.2 0.00 0.00 0.00 13 1013.2
20260508005639 81 276 1.7 5.2 0.00 0.00 0.00 12 1013.3
20260508004629 82 250 3.5 6.1 0.00 0.00 0.00 12 1013.3
20260508003640 81 263 0.0 2.6 0.00 0.00 0.00 12 1013.4
20260508002628 81 296 1.7 3.5 0.00 0.00 0.00 12 1013.4
20260508001642 81 327 1.7 7.0 0.00 0.00 0.00 13 1013.4
20260508000635 81 284 3.5 7.8 0.00 0.00 0.00 13 1013.5
20260507234645 82 186 3.5 7.8 0.00 0.00 0.00 13 1013.8
20260507233638 81 242 0.9 9.6 0.00 0.00 0.00 12 1013.7
20260507232631 82 303 6.1 8.7 0.00 0.00 0.00 12 1013.8
20260507231641 82 239 2.6 11.3 0.00 0.00 0.00 12 1013.8
20260507230637 83 252 5.2 14.8 0.00 0.00 0.00 12 1013.8
20260507225636 83 181 2.6 9.6 0.00 0.00 0.00 12 1014.0
20260507222641 81 286 2.6 11.3 0.00 0.00 0.00 12 1014.0
20260507221634 82 253 7.0 13.0 0.00 0.00 0.00 12 1014.3
20260507220626 81 246 3.5 11.3 0.00 0.00 0.00 13 1014.3
20260507215639 82 271 8.7 13.0 0.00 0.00 0.00 12 1014.4
20260507211637 83 257 2.6 7.0 0.00 0.00 0.00 13 1014.8
20260507205723 81 116 5.2 7.8 0.00 0.00 0.00 14 1015.0
20260507203732 81 11 2.6 7.0 0.00 0.00 0.00 14 1015.4
20260507202723 80 85 4.3 7.8 0.00 0.00 0.00 14 1015.7
20260507200724 81 341 4.3 10.4 0.00 0.00 0.00 14 1016.0
20260507195739 80 232 1.7 7.8 0.00 0.00 0.00 14 1016.3
20260507194731 80 348 7.8 13.0 0.00 0.00 0.00 14 1016.4
20260507193730 80 67 5.2 7.8 0.00 0.00 0.00 16 1016.6
20260507192723 80 80 0.0 7.8 0.00 0.00 0.00 16 1016.7
20260507191737 79 91 2.6 9.6 0.00 0.00 0.00 16 1016.9
20260507190735 79 77 5.2 11.3 0.00 0.00 0.00 17 1017.0
20260507185724 78 289 3.5 9.6 0.00 0.00 0.00 16 1017.2
20260507184721 78 140 7.0 9.6 0.00 0.00 0.00 17 1016.5
20260507183738 78 33 2.6 18.2 0.00 0.00 0.00 17 1016.6
20260507182730 78 81 1.7 7.8 0.00 0.00 0.00 17 1016.7
20260507181727 77 40 4.3 8.7 0.00 0.00 0.00 18 1016.8
20260507180739 77 346 3.5 9.6 0.00 0.00 0.00 19 1017.1
20260507175738 76 288 1.7 7.8 0.00 0.00 0.00 18 1017.1
20260507174722 76 313 0.9 7.8 0.00 0.00 0.00 20 1017.4
20260507173720 76 75 5.2 7.8 0.00 0.00 0.00 21 1017.4
20260507172730 76 166 3.5 8.7 0.00 0.00 0.00 21 1017.6
20260507171722 75 61 1.7 7.8 0.00 0.00 0.00 21 1017.6
20260507164727 74 101 5.2 9.6 0.00 0.00 0.00 22 1017.8
20260507161731 70 5 1.7 3.5 0.00 0.00 0.00 28 1018.3
20260507160737 69 329 0.9 4.3 0.00 0.00 0.00 29 1018.4
20260507155729 67 304 0.0 5.2 0.00 0.00 0.00 30 1018.7
20260507153721 65 355 2.6 6.1 0.00 0.00 0.00 33 1018.7